Hourly Weather Roundup
Issued by NWS Central Illinois

Home | Current Version | Previous Version | Text Only | Print | Product List | Glossary On
Versions: 1 2 3 4 5 6 7 8 9 10 11 12 13 14 15 16 17 18 19 20 21 22 23 24 25 26 27 28 29 30 31 32 33 34 35 36 37 38 39 40 41 42 43 44 45 46 47 48 49 50
000
NZUS43 KILX 031010
HWRILX

AREA WEATHER ROUNDUP
NATIONAL WEATHER SERVICE, LINCOLN IL
500 AM CDT SUN MAY 03 2015


CITY           SKY/WX    TMP DP  RH WIND       PRES   REMARKS
BLOOMINGTON    LGT RAIN  58  47  66 S9        30.01R
CHAMPAIGN      CLOUDY    61  46  57 S10       30.02R
DANVILLE       CLOUDY    59  46  63 SW8       30.00R
DECATUR        CLOUDY    61  46  57 S9        30.01S
EFFINGHAM      CLOUDY    61  44  53 SE3       30.05S
FLORA          CLOUDY    56  51  81 S5        30.05S
GALESBURG      CLOUDY    57  49  74 S3        29.95R
JACKSONVILLE   MOCLDY    64  46  53 S8        29.97S
LACON          CLOUDY    61  44  53 S8        29.95S
LAWRENCEVILLE  CLOUDY    58  51  78 S6        30.06S
LITCHFIELD     MOCLDY    58  46  63 S6        30.01S
$$


CITY           SKY/WX    TMP DP  RH WIND       PRES   REMARKS
LINCOLN        CLOUDY    61  47  59 S9        29.98S
MACOMB         MOCLDY    56  47  73 S9        29.96S
MATTOON        CLOUDY    61  46  57 S7        30.03R
MT CARMEL AP   CLOUDY    61  46  59 S3        30.06S
OLNEY-NOBLE AP MOCLDY    57  48  72 S3        30.05S
PARIS          CLOUDY    58  49  71 S5        30.05S
PEORIA         MOCLDY    62  46  55 S9        29.97S
PONTIAC        CLOUDY    57  46  66 E5        30.00S
RANTOUL        CLOUDY    64  46  52 S7        30.01S
ROBINSON       CLOUDY    58  49  71 S5        30.06S
SPRINGFIELD    MOCLDY    62  46  55 S9        29.99S
TAYLORVILLE    CLOUDY    61  45  55 S9        30.01R
$$

...REGIONAL REPORTS...


CITY           SKY/WX    TMP DP  RH WIND       PRES   REMARKS
CHICAGO O`HARE CLOUDY    60  42  51 S8        29.96S
KANKAKEE       CLOUDY    57  44  61 S9        30.01R
MOLINE         LGT RAIN  62  46  55 S9G22     29.91F
MOUNT VERNON   CLOUDY    54  48  82 CALM      30.05S
PITTSFIELD     PTCLDY    59  47  64 S7        29.97S
QUINCY         PTCLDY    60  46  59 S7        29.94S
ROCKFORD       CLOUDY    58  42  55 SE6       29.97R
$$


CITY           SKY/WX    TMP DP  RH WIND       PRES   REMARKS
BURLINGTON     CLOUDY    60  48  64 S8        29.92S
CEDAR RAPIDS   CLOUDY    61  50  67 S13       29.87
DES MOINES     LGT RAIN  62  54  74 S13       29.78F
KIRKSVILLE     CLOUDY    57  51  80 S8        29.91S
OTTUMWA        CLOUDY    56  51  84 S8        29.87S
ST LOUIS       CLOUDY    65  43  44 SE8       30.00R
$$


CITY           SKY/WX    TMP DP  RH WIND       PRES   REMARKS
TERRE HAUTE    CLOUDY    59  48  67 S6        30.05S
EVANSVILLE     MOCLDY    55  50  83 CALM      30.08R HAZE
INDIANAPOLIS   MOCLDY    53  44  71 SE5       30.05R
LAFAYETTE      PTCLDY    52  44  74 CALM      30.03S
MADISON        PTCLDY    59  48  67 S6        29.91S
MILWAUKEE      MOCLDY    59  40  49 SW8       29.94R
$$




USA.gov is the U.S. government's official web portal to all federal, state and local government web resources and services.